This demonstration page uses our WeatherBlox Daily Observations layout. Learn more.

Left ArrowRight Arrow

34.74481, -87.66753

Hourly Observations for May 10, 2017

Temp ( °F °C ) Dew Point ( °F °C ) Humidity (%) Winds ( mph kmh ) Pressure ( in mb ) Visibility ( mi km ) Precip ( " mm )
12:53 am 00:53 Clear 62 16.7 58 14.4 86 86 Calm 30.01 1016 10 16 0.00 0.00
1:53 am 01:53 Clear 60 15.6 57 13.9 90 90 Calm 30.00 1016 8 13 0.00 0.00
2:53 am 02:53 Clear 60 15.6 57 13.9 90 90 Calm 30.01 1016 8 13 0.00 0.00
3:08 am 03:08 Clear with Mist and Fog 59 15 57 13.9 93 93 Calm 30.03 1017 3 4 0.00 0.00
3:16 am 03:16 Clear with Mist and Fog 59 15 57 13.9 93 93 Calm 30.03 1017 2 3 0.00 0.00
3:20 am 03:20 Clear with Mist and Fog 59 15 57 13.9 93 93 Calm 30.03 1017 3 5 0.00 0.00
3:53 am 03:53 Clear with Mist and Fog 59 15 56 13.3 90 90 Calm 30.02 1017 6 10 0.00 0.00
4:53 am 04:53 Clear with Mist and Fog 58 14.4 56 13.3 93 93 Calm 30.03 1017 4 6 0.00 0.00
5:38 am 05:38 Clear with Mist and Fog 57 13.9 55 12.8 93 93 Calm 30.06 1018 3 4 0.00 0.00
5:49 am 05:49 Clear with Mist and Fog 57 14 55 13 94 94 Calm 30.06 1018 4 6 0.00 0.00
5:53 am 05:53 Sunny with Mist and Fog 57 13.9 55 12.8 93 93 Calm 30.04 1017 4 6 0.00 0.00
6:13 am 06:13 Sunny with Mist and Fog 57 13.9 55 12.8 93 93 Calm 30.06 1018 2 2 0.00 0.00
6:26 am 06:26 Sunny with Mist and Fog 57 13.9 55 12.8 93 93 Calm 30.06 1018 1 1 0.00 0.00
6:33 am 06:33 Sunny with Mist and Fog 58 14.4 55 12.8 90 90 Calm 30.06 1018 2 3 0.00 0.00
6:41 am 06:41 Sunny with Mist and Fog 58 14.4 56 13.3 93 93 Calm 30.06 1018 6 10 0.00 0.00
6:53 am 06:53 Sunny with Mist and Fog 61 16.1 58 14.4 90 90 Calm 30.06 1018 6 10 0.00 0.00
7:53 am 07:53 Sunny 67 19.4 61 16.1 81 81 Calm 30.07 1018 9 14 0.00 0.00
8:53 am 08:53 Sunny 73 22.8 62 16.7 69 69 WSW 5 7 30.08 1019 10 16 0.00 0.00
9:53 am 09:53 Sunny 77 25 62 16.7 60 60 W 12 19 30.08 1019 10 16 0.00 0.00
10:53 am 10:53 Sunny 80 26.7 63 17.2 56 56 WSW 5 7 30.07 1018 10 16 0.00 0.00
11:53 am 11:53 Mostly Sunny 82 27.8 63 17.2 53 53 WSW 12 19 30.06 1018 10 16 0.00 0.00
12:53 pm 12:53 Mostly Sunny 83 28.3 61 16.1 48 48 SW 9 15 30.04 1017 10 16 0.00 0.00
1:53 pm 13:53 Sunny 84 28.9 61 16.1 46 46 WSW 10 17 30.03 1017 10 16 0.00 0.00
2:53 pm 14:53 Sunny 84 28.9 60 15.6 44 44 Calm 30.00 1016 10 16 0.00 0.00
3:53 pm 15:53 Sunny 85 29.4 60 15.6 43 43 W 10 17 29.99 1016 10 16 0.00 0.00
4:53 pm 16:53 Sunny 84 28.9 58 14.4 41 41 WSW 12 19 29.98 1015 10 16 0.00 0.00
5:53 pm 17:53 Sunny 83 28.3 60 15.6 46 46 WSW 9 15 29.98 1015 10 16 0.00 0.00
6:53 pm 18:53 Sunny 78 25.6 60 15.6 54 54 WSW 6 9 29.96 1015 10 16 0.00 0.00
7:53 pm 19:53 Clear 76 24.4 60 15.6 58 58 S 5 7 29.97 1015 10 16 0.00 0.00
8:53 pm 20:53 Clear 69 20.6 62 16.7 78 78 Calm 29.98 1015 10 16 0.00 0.00
9:53 pm 21:53 Clear 71 21.7 61 16.1 71 71 S 5 7 29.99 1016 10 16 0.00 0.00
10:53 pm 22:53 Clear 71 21.7 60 15.6 68 68 SSW 7 11 29.99 1016 10 16 0.00 0.00
11:53 pm 23:53 Clear 66 18.9 59 15 78 78 S 3 6 29.98 1015 10 16 0.00 0.00

Powered by AerisWeather